This is the latest recevied weather packets stored in our database for station/object HF3P-11. If no packets are shown the sender has not sent any weather packets the latest 10 day(s).
| Time | Temp. | Humidity | Pressure | Rain* | Wind** | Luminosity | Snow |
|---|---|---|---|---|---|---|---|
| 1787568300 | 16.67° C | 90% | 1014.1 hPa | 0 mm | - | - | - |
| 1787568001 | 16.67° C | 91% | 1014.3 hPa | 0 mm | - | - | - |
| 1787567709 | 16.67° C | 90% | 1014.3 hPa | 0 mm | - | - | - |
| 1787567401 | 16.67° C | 92% | 1014.2 hPa | 0 mm | - | - | - |
| 1787567101 | 16.67° C | 92% | 1014.3 hPa | 0 mm | - | - | - |
| 1787566801 | 16.11° C | 95% | 1014.2 hPa | 0 mm | - | - | - |
| 1787566510 | 16.11° C | 95% | 1014.2 hPa | 0 mm | - | - | - |
| 1787566201 | 15.56° C | 96% | 1014.2 hPa | 0 mm | - | - | - |
| 1787565909 | 15° C | 100% | 1014.3 hPa | 0 mm | - | - | - |
| 1787565601 | 15° C | 100% | 1014.2 hPa | 0 mm | - | - | - |
| 1787565310 | 15° C | 100% | 1014.3 hPa | 0 mm | - | - | - |
| 1787565001 | 15° C | 100% | 1014.4 hPa | 0 mm | - | - | - |
| 1787564709 | 15° C | 100% | 1014.4 hPa | 0 mm | - | - | - |
| 1787564401 | 15° C | 100% | 1014.3 hPa | 0 mm | - | - | - |
| 1787564111 | 14.44° C | 99% | 1014.5 hPa | 0 mm | - | - | - |
| 1787563801 | 14.44° C | 100% | 1014.4 hPa | 0 mm | - | - | - |
| 1787563511 | 14.44° C | 99% | 1014.3 hPa | 0 mm | - | - | - |
| 1787563210 | 14.44° C | 99% | 1014.4 hPa | 0 mm | - | - | - |
| 1787562901 | 14.44° C | 99% | 1014.3 hPa | 0 mm | - | - | - |
| 1787562609 | 14.44° C | 99% | 1014.2 hPa | 0 mm | - | - | - |
| 1787562301 | 14.44° C | 99% | 1014.2 hPa | 0 mm | - | - | - |
| 1787562009 | 14.44° C | 99% | 1014.1 hPa | 0 mm | - | - | - |
| 1787561702 | 14.44° C | 99% | 1014.4 hPa | 0 mm | - | - | - |
| 1787561409 | 14.44° C | 99% | 1014.2 hPa | 0 mm | - | - | - |
| 1787561102 | 14.44° C | 99% | 1014.2 hPa | 0 mm | - | - | - |
* Rain latest hour (hover to see other rain measurements)
** Current wind speed in m/s (hover to see current wind gust speed)